Location: Marse
(42.1502°N, 110.9866°W)
Time: 06:59:33
(UTC+00:00)

ZACube-1 - Pass Details

Date: 01 July 2022
Orbit: 582 x 661 km, 97.6° (Epoch: 11 August)

Event Time Altitude Azimuth Distance (km) Brightness Sun altitude
Rises 10:18:26 0° 28° (NNE) 2,956 ? -13.8°
Reaches altitude 10° 10:21:10 10° 45° (NE) 2,054 ? -13.5°
Maximum altitude 10:24:28 20° 93° (E) 1,503 ? -13.1°
Drops below altitude 10° 10:27:48 10° 141° (SE) 2,065 ? -12.7°
Sets 10:30:32 0° 158° (SSE) 2,977 ? -12.3°
